Regional Weather Roundup
Issued by NWS Newport/Morehead, NC

Current Version | Previous Version | Graphics & Text | Print | Product List | Glossary Off
Versions: 1 2 3 4 5 6 7 8 9 10 11 12 13 14 15 16 17 18 19 20 21 22 23 24 25 26 27 28 29 30 31 32 33 34 35 36 37 38 39 40 41 42 43 44 45 46 47 48 49 50

000
ASUS42 KMHX 271325
RWRMHX
WEATHER ROUNDUP FOR EASTERN NORTH CAROLINA
NATIONAL WEATHER SERVICE NEWPORT/MOREHEAD CITY NC
900 AM EDT FRI MAY 27 2016

NOTE: "FAIR" INDICATES FEW OR NO CLOUDS BELOW 12,000 FEET
WITH NO SIGNIFICANT WEATHER AND/OR OBSTRUCTIONS TO VISIBILITY

NCZ015>017-031-032-045>047-102-103-271400-
NORTH COAST

CITY           SKY/WX    TMP DP  RH WIND       PRES   REMARKS
EDENTON        MOSUNNY  N/A N/A N/A S6        30.18S
ELIZABETH CITY MOSUNNY   75  63  66 SW9       30.17S
KITTY HAWK     SUNNY     78  63  60 SW6       30.17S
MANTEO         NOT AVBL

$$

NCZ045>047-081-094-103-104-271400-
CENTRAL COAST

CITY           SKY/WX    TMP DP  RH WIND       PRES   REMARKS
FRISCO         SUNNY     77  58  51 SE3       30.20R

$$

NCZ095-097-098-100-101-271400-
SOUTHERN COAST

CITY           SKY/WX    TMP DP  RH WIND       PRES   REMARKS
BEAUFORT       SUNNY     77  62  59 SE5       30.18S
CEDAR ISLAND   NOT AVBL
JACKSONVILLE   SUNNY     74  65  73 E3        30.17R
PINEY ISLAND   SUNNY    N/A N/A N/A SE5       30.18S
WILMINGTON     SUNNY     75  65  70 E3        30.17R


$$

NCZ011>013-027>030-043-044-078>080-089-090>093-098-271400-
COASTAL PLAIN

CITY           SKY/WX    TMP DP  RH WIND       PRES   REMARKS
AHOSKIE        SUNNY     75  65  71 S3        30.16S
CLINTON        MOSUNNY   74  67  78 CALM      30.17F
ELIZABETHTOWN  SUNNY     75  63  66 SW5       30.18R
GOLDSBORO      MOSUNNY   73  70  89 S1        30.16R
GREENVILLE     MOSUNNY   77  64  65 SW8       30.18S
HAVELOCK       SUNNY     76  64  66 SE6       30.19R
KENANSVILLE    SUNNY     76  63  64 CALM      30.18S
KINSTON        SUNNY     77  63  61 SW7       30.18R
NEW BERN       SUNNY     76  63  64 S5        30.19S
RICHLANDS      SUNNY     76  63  64 S5        30.18R
ROCKY MOUNT    SUNNY     75  66  73 SW8       30.16R
WASHINGTON     SUNNY     76  64  65 SW3       30.18S
WHITEVILLE     SUNNY     76  64  67 CALM      30.17R

$$

AMZ130-135-150-152-154-156-158-170-250-252-270-ANZ085-086-088-633-658-670-271400-
MARINE OBSERVATIONS

STATION/POSITION TIME  TEMP    WIND        PRES    WAVE   SWELL
                       AIR SEA DIR/SP/G            HT/PER HT/PER
                 (UTC) (F)     (DEG/KT/KT) (MB)    (FT/S) (FT/S)
CHESAPEAKE LIGHT 1200   70     210/ 17/ 18 1021.4
64 E VA BEACH    1250   64 59  170/  8/  8 1021.7    2/ 8   2/ 8
DUCK             1300   73 60  200/  8/ 11 1021.1
2 E DUCK         1211      62                N/A     1/ 7
OREGON INLET     1300   75 75  170/  6/  7 1022.1
13E OREGON INLT  1300      65                N/A     2/ 8   2/ 8
HATTERAS CG      1300   76 71  140/  4/  5 1021.8
DIAMOND BUOY     1250   77 81  320/  6/  6 1022.4    2/ 8   2/ 8
CAPE LOOKOUT     1200   73     100/  3/  3 1021.7
BEAUFORT LAB     1300   76 72  140/  3/  5 1021.4
30 SE NEW RVR IN 1225      74                N/A     2/ 7
27 SE WRIGHTSVLE 1308   76 74   90/  6/  8 1021.8
5 SE WRIGHTSVLE  1308   73 73   70/  4/  6 1022.6
225 S CAPE HAT   1250   74 78   60/ 16/ 19 1019.4    3/ 4   2/ 8
41 SE CHARLESTON 1250   77 77   20/ 10/ 12 1020.3    2/ 6   2/ 6

$$



USA.gov is the U.S. government's official web portal to all federal, state and local government web resources and services.